Вернуться в каталог

COSMOS 252 DEB *

АктивенLEO
NORAD 3686·DEBRIS·🇷🇺 Russia

Запущен Nov 1, 1968 с Baikonur Cosmodrome

Loading…

Ближайшие Пролёты (ближайшие 24 часа)

TLE

СвежийSource: Space-Track

Эпоха: Sep 14, 2026, 12:38 UTC

1 03686U 68097AD  26257.52643919  .00000606  00000-0  64209-3 0  9990
2 03686  62.2606 232.7978 0624682 191.3443 167.2912 13.18198727708547

Отслеживайте COSMOS 252 DEB * в реальном времени с AllMySat

Download on the App Store